Weather History for Kalispell, MT

Change the Weather History Date:

Sunday, December 16, 2012

  Actual Average Record
Temperature  
Mean Temperature 29 °F 22 °F  
Max Temperature 35 °F 29 °F 49 °F (1906)
Min Temperature 22 °F 15 °F -21 °F (1964)
Degree Days  
Heating Degree Days 36 43  
Month to date heating degree days 549 659  
Since 1 July heating degree days 2529 2863  
Cooling Degree Days 0 0  
Month to date cooling degree days 0 0  
Year to date cooling degree days 192 147  
Moisture  
Dew Point 22 °F    
Average Humidity 76    
Maximum Humidity 100    
Minimum Humidity 52    
Precipitation  
Precipitation T in 0.05 in 0.43 in (1973)
Month to date precipitation 0.88 0.77  
Year to date precipitation 20.02 16.20  
Snow  
Snow 0.00 in - - ()
Month to date snowfall 3.3  
Year to date snowfall 30.7  
Since 1 July snowfall 5.6  
Snow Depth 0.00 in    
Sea Level Pressure  
Sea Level Pressure 29.66 in    
Wind  
Wind Speed 5 mph (SW)    
Max Wind Speed 16 mph    
Max Gust Speed 24 mph    
Visibility 10 miles    
Events      
T = Trace of Precipitation, MM = Missing Value Source: NWS Daily Summary

Daily Weather History Graph

Daily Weather History Graph

Search for Another Location

Airport:

Trip Planner

Search our weather history database for the weather conditions in past years. The results will help you decide how hot, cold, wet, or windy it might be!

Date:

Astronomy

Dec. 16, 2012 Rise Set
Actual Time 8:22 AM MST 4:43 PM MST
Civil Twilight 7:45 AM MST 5:20 PM MST
Nautical Twilight 7:06 AM MST 5:59 PM MST
Astronomical Twilight 6:27 AM MST 6:38 PM MST
Moon 10:44 AM MST (12/16) 9:18 PM MST (12/16)
Length of Visible Light 9h 34m
Length of Day
8h 20m
Waxing Crescent, 16% of the Moon is Illuminated
Dec 16
Waxing Crescent
Dec 19
First Quarter
Dec 28
Full
Jan 4
Last Quarter
Jan 11
New

Hourly Weather History & Observations

Time (MST) Temp. Windchill Dew Point Humidity Pressure Visibility Wind Dir Wind Speed Gust Speed Precip Events Conditions
12:55 AM 24.1 °F - 21.9 °F 91% 29.66 in 8.0 mi Calm Calm - N/A   Overcast
1:55 AM 24.1 °F - 23.0 °F 96% 29.64 in 8.0 mi Calm Calm - N/A   Overcast
2:55 AM 25.0 °F - 24.1 °F 96% 29.64 in 7.0 mi Calm Calm - N/A   Overcast
3:55 AM 25.0 °F 19.3 °F 23.0 °F 92% 29.64 in 10.0 mi WSW 4.6 mph - 0.00 in   Overcast
4:55 AM 24.1 °F 17.0 °F 21.9 °F 91% 29.64 in 10.0 mi SW 5.8 mph - N/A   Mostly Cloudy
5:55 AM 24.8 °F 20.5 °F 23.0 °F 93% 29.55 in 10.0 mi SW 3.5 mph - N/A   Overcast
6:55 AM 25.0 °F 17.1 °F 23.0 °F 92% 29.65 in 10.0 mi SSW 6.9 mph - N/A   Overcast
7:55 AM 26.1 °F 20.5 °F 23.0 °F 88% 29.65 in 10.0 mi South 4.6 mph - N/A   Overcast
8:55 AM 25.0 °F 16.3 °F 19.9 °F 81% 29.68 in 10.0 mi SSE 8.1 mph - N/A   Mostly Cloudy
9:55 AM 30.9 °F 25.2 °F 21.9 °F 69% 29.71 in 10.0 mi South 5.8 mph - N/A   Overcast
10:55 AM 34.0 °F 28.0 °F 21.9 °F 61% 29.73 in 10.0 mi SW 6.9 mph - N/A   Overcast
11:55 AM 33.1 °F 24.9 °F 19.9 °F 59% 29.74 in 10.0 mi WSW 10.4 mph - N/A   Mostly Cloudy
12:55 PM 35.1 °F 26.9 °F 19.9 °F 54% 29.73 in 10.0 mi WSW 11.5 mph - N/A   Scattered Clouds
1:55 PM 33.1 °F 26.9 °F 19.0 °F 56% 29.73 in 10.0 mi Variable 6.9 mph - N/A   Scattered Clouds
2:55 PM 33.1 °F 23.9 °F 21.0 °F 61% 29.71 in 10.0 mi SW 12.7 mph - N/A   Overcast
3:55 PM 32.0 °F 24.8 °F 21.0 °F 64% 29.72 in 10.0 mi SW 8.1 mph - N/A   Overcast
4:55 PM 30.0 °F 24.1 °F 21.9 °F 72% 29.71 in 10.0 mi SW 5.8 mph - N/A   Overcast
5:55 PM 28.9 °F 22.8 °F 21.9 °F 75% 29.70 in 10.0 mi SW 5.8 mph - N/A   Overcast
6:55 PM 28.9 °F - 23.0 °F 78% 29.69 in 10.0 mi Calm Calm - N/A   Overcast
7:55 PM 27.0 °F - 23.0 °F 85% 29.65 in 10.0 mi Calm Calm - N/A   Overcast
8:55 PM 24.1 °F - 21.0 °F 88% 29.62 in 10.0 mi Calm Calm - N/A   Partly Cloudy
9:55 PM 24.1 °F - 21.0 °F 88% 29.57 in 10.0 mi Calm Calm - N/A   Mostly Cloudy
10:55 PM 25.0 °F - 21.9 °F 88% 29.52 in 10.0 mi Calm Calm - N/A   Overcast
11:55 PM 25.0 °F 19.3 °F 21.9 °F 88% 29.46 in 10.0 mi West 4.6 mph - N/A   Overcast